Weather History for Grand Etang, NS

Change the Weather History Date:

Sunday, February 16, 2014

  Actual Average Record
Temperature  
Mean Temperature 0 °F -  
Max Temperature 31 °F - - ()
Min Temperature -31 °F - - ()
Degree Days  
Heating Degree Days 65    
Moisture  
Dew Point 21 °F    
Average Humidity 82    
Maximum Humidity 100    
Minimum Humidity 59    
Precipitation  
Precipitation 0.02 in - - ()
Sea Level Pressure  
Sea Level Pressure 29.14 in    
Wind  
Wind Speed 24 mph ()    
Max Wind Speed 60 mph    
Max Gust Speed 104 mph    
Visibility 1.2 miles    
Events Snow    
T = Trace of Precipitation, MM = Missing Value Source: Averaged Metar Reports

Daily Weather History Graph

Daily Weather History Graph

Search for Another Location

Airport:

Trip Planner

Search our weather history database for the weather conditions in past years. The results will help you decide how hot, cold, wet, or windy it might be!

Date:

Astronomy

Feb. 16, 2014 Rise Set
Actual Time 7:06 AM AST 5:30 PM AST
Civil Twilight 6:35 AM AST 6:01 PM AST
Nautical Twilight 6:00 AM AST 6:37 PM AST
Astronomical Twilight 5:25 AM AST 7:12 PM AST
Moon 7:32 PM AST 7:25 AM AST
Length of Visible Light 11h 26m
Length of Day
10h 24m
Full, 97% of the Moon is Illuminated
Feb 16
Full
Feb 22
Last Quarter
Mar 1
New
Mar 8
First Quarter
Mar 16
Full

Hourly Weather History & Observations

Time (AST) Temp. Windchill Dew Point Humidity Pressure Visibility Wind Dir Wind Speed Gust Speed Precip Events Conditions
12:00 AM 25.2 °F 16.5 °F 18.3 °F 75% 29.80 in - NW 8.1 mph 17.3 mph N/A   Unknown
12:20 AM 24.8 °F 11.9 °F 18.5 °F 77% - - North 16.1 mph 25.3 mph N/A   Unknown
12:40 AM 25.5 °F 13.3 °F 18.5 °F 75% - - North 15.0 mph 25.3 mph N/A   Unknown
1:00 AM 25.0 °F 13.6 °F 18.9 °F 78% 29.71 in - NNW 12.7 mph 23.0 mph N/A   Unknown
1:20 AM 25.0 °F 15.5 °F 18.3 °F 76% - - NE 9.2 mph 24.2 mph N/A   Unknown
1:40 AM 25.0 °F 12.2 °F 18.3 °F 76% - - East 16.1 mph 39.1 mph N/A   Unknown
2:00 AM -21 °F - -27 °F 59% 29.83 in 2 mi SE 15.0 mph - - Snow Light Snow
2:00 AM 25.5 °F 10.3 °F 18.1 °F 74% 29.56 in - East 24.2 mph 36.8 mph N/A   Unknown
2:20 AM 25.9 °F 11.1 °F 18.3 °F 73% - - East 23.0 mph 52.9 mph N/A   Unknown
2:40 AM 26.2 °F 7.0 °F 18.0 °F 71% - - East 44.9 mph 63.3 mph N/A   Unknown
3:00 AM 26.4 °F 6.0 °F 18.0 °F 70% 29.33 in - East 52.9 mph 74.8 mph N/A   Unknown
3:20 AM 26.4 °F 7.0 °F 18.7 °F 73% - - East 46.0 mph 66.7 mph N/A   Unknown
3:40 AM 27.0 °F 7.5 °F 18.9 °F 72% - - East 48.3 mph 71.3 mph N/A   Unknown
4:00 AM 27.1 °F 7.7 °F 19.4 °F 73% 29.24 in - East 48.3 mph 81.7 mph N/A   Unknown
4:20 AM 27.7 °F 7.8 °F 19.9 °F 73% - - East 52.9 mph 85.2 mph N/A   Unknown
4:40 AM 28.6 °F 8.5 °F 20.7 °F 72% - - East 57.5 mph 82.9 mph N/A   Unknown
5:00 AM 29.3 °F 10.3 °F 22.1 °F 75% 29.05 in - East 51.8 mph 89.8 mph N/A   Unknown
5:20 AM 30.9 °F 11.6 °F 23.5 °F 74% - - East 59.8 mph 84.0 mph N/A   Unknown
5:40 AM 31.5 °F 12.4 °F 23.5 °F 73% - - East 59.8 mph 103.6 mph N/A   Unknown
6:00 AM 31.6 °F 19.3 °F 26.1 °F 80% 28.92 in - ENE 20.7 mph 92.1 mph N/A   Unknown
6:20 AM 30.7 °F 22.0 °F 24.6 °F 78% - - NE 10.4 mph 24.2 mph N/A   Unknown
6:40 AM 31.3 °F 21.1 °F 24.8 °F 77% - - NE 13.8 mph 24.2 mph N/A   Unknown
7:00 AM 32.0 °F 22.1 °F 25.0 °F 75% 28.80 in - NE 13.8 mph 24.2 mph N/A   Unknown
7:20 AM 31.3 °F 22.1 °F 26.1 °F 81% - - NE 11.5 mph 23.0 mph N/A   Unknown
7:40 AM 33.3 °F 25.1 °F 27.0 °F 78% - - NNE 10.4 mph 24.2 mph N/A   Unknown
8:00 AM -15 °F - -20 °F 64% 29.68 in 1 mi ESE 20.7 mph - - Snow Light Snow
8:00 AM 34.3 °F 25.9 °F 29.3 °F 82% 28.74 in - North 11.5 mph 23.0 mph N/A   Unknown
8:20 AM 35.6 °F 28.6 °F 28.4 °F 75% - - North 9.2 mph 17.3 mph N/A   Unknown
8:40 AM 35.8 °F 30.9 °F 28.9 °F 76% - - North 5.8 mph - N/A   Unknown
9:00 AM 37.6 °F 33.1 °F 30.6 °F 76% 28.69 in - North 5.8 mph - N/A   Unknown
9:20 AM 37.9 °F 33.5 °F 31.6 °F 78% - - North 5.8 mph - N/A   Unknown
9:40 AM 37.8 °F 35.3 °F 31.6 °F 79% - - North 3.5 mph - N/A   Unknown
10:00 AM 38.7 °F - 33.8 °F 83% 28.65 in - North 1.2 mph - N/A   Unknown
10:20 AM 39.2 °F - 34.2 °F 82% - - ESE 1.2 mph 29.9 mph N/A   Unknown
10:40 AM 41.2 °F 31.6 °F 34.5 °F 77% - - ESE 21.9 mph 40.3 mph N/A   Unknown
11:00 AM 45.3 °F 38.7 °F 37.6 °F 74% 28.59 in - SE 15.0 mph 23.0 mph N/A   Unknown
11:20 AM 44.6 °F 36.9 °F 38.5 °F 79% - - SE 18.4 mph 27.6 mph N/A   Unknown
11:40 AM 43.2 °F 34.7 °F 37.9 °F 82% - - SE 19.6 mph 28.8 mph N/A   Unknown
12:00 PM 44.2 °F 36.2 °F 38.8 °F 81% 28.55 in - SE 19.6 mph 31.1 mph N/A   Unknown
12:20 PM 43.7 °F 36.3 °F 38.3 °F 81% - - SE 16.1 mph 26.5 mph N/A   Unknown
12:40 PM 43.2 °F 35.0 °F 38.1 °F 82% - - SE 18.4 mph 24.2 mph N/A   Unknown
1:00 PM 43.0 °F 35.7 °F 38.8 °F 85% 28.53 in - SE 15.0 mph 23.0 mph N/A   Unknown
1:20 PM 37.8 °F 27.7 °F 34.2 °F 87% - - South 19.6 mph 36.8 mph N/A   Unknown
1:40 PM 32.9 °F 20.1 °F 31.5 °F 94% - - South 24.2 mph 35.7 mph N/A   Unknown
2:00 PM -12 °F - -17 °F 68% 29.62 in 1 mi SE 20.7 mph - - Snow Light Snow
2:00 PM - - - N/A% 28.62 in - South 23.0 mph 34.5 mph N/A   Unknown
2:20 PM 31.6 °F 19.0 °F 30.7 °F 96% - - South 21.9 mph 28.8 mph N/A   Unknown
2:40 PM 30.0 °F 15.4 °F 29.1 °F 96% - - SSW 27.6 mph 36.8 mph N/A   Unknown
3:00 PM 28.4 °F 13.0 °F 29.3 °F 100% 28.72 in - SSW 28.8 mph 44.9 mph N/A   Unknown
3:20 PM 27.5 °F 10.8 °F 26.4 °F 96% - - SSW 33.4 mph 46.0 mph N/A   Unknown
3:40 PM 26.4 °F 8.4 °F 25.5 °F 96% - - SW 38.0 mph 48.3 mph N/A   Unknown
4:00 PM 25.5 °F 6.5 °F 24.3 °F 95% 28.87 in - WSW 41.4 mph 54.1 mph N/A   Unknown
4:20 PM 24.4 °F 4.4 °F 23.4 °F 96% - - WSW 44.9 mph 54.1 mph N/A   Unknown
4:40 PM 23.0 °F 1.8 °F 21.6 °F 94% - - WSW 48.3 mph 61.0 mph N/A   Unknown
5:00 PM 21.2 °F -1.3 °F 19.8 °F 94% 29.04 in - WSW 51.8 mph 63.3 mph N/A   Unknown
5:20 PM 21.0 °F -1.5 °F 19.8 °F 95% - - West 51.8 mph 64.4 mph N/A   Unknown
5:40 PM 20.5 °F -2.3 °F 19.0 °F 94% - - West 51.8 mph 67.9 mph N/A   Unknown
6:00 PM 20.1 °F -2.8 °F 18.5 °F 93% 29.13 in - West 51.8 mph 66.7 mph N/A   Unknown
6:20 PM 20.1 °F -2.4 °F 18.5 °F 93% - - West 49.5 mph 64.4 mph N/A   Unknown
6:40 PM 20.1 °F -3.0 °F 18.5 °F 93% - - West 52.9 mph 64.4 mph N/A   Unknown
7:00 PM 19.9 °F -2.1 °F 18.0 °F 92% 29.21 in - West 46.0 mph 57.5 mph N/A   Unknown
7:20 PM 20.1 °F -1.4 °F 18.1 °F 92% - - West 43.7 mph 55.2 mph N/A   Unknown
7:40 PM 19.6 °F -2.4 °F 17.2 °F 91% - - West 44.9 mph 56.4 mph N/A   Unknown
8:00 PM -11 °F - -15 °F 72% 29.66 in 1 mi ESE 18.4 mph - - Snow Light Snow
8:00 PM 19.9 °F -0.8 °F 18.3 °F 93% 29.28 in - West 39.1 mph 48.3 mph N/A   Unknown
8:20 PM 20.1 °F -0.1 °F 17.8 °F 91% - - West 36.8 mph 46.0 mph N/A   Unknown
8:40 PM 19.8 °F -1.3 °F 17.6 °F 91% - - West 40.3 mph 49.5 mph N/A   Unknown
9:00 PM 19.4 °F -0.8 °F 17.1 °F 91% 29.34 in - West 35.7 mph 46.0 mph N/A   Unknown
9:20 PM 18.9 °F -1.8 °F 16.0 °F 89% - - West 36.8 mph 47.2 mph N/A   Unknown
9:40 PM 18.5 °F -2.3 °F 15.3 °F 87% - - West 36.8 mph 47.2 mph N/A   Unknown
10:00 PM 18.3 °F -2.3 °F 14.5 °F 85% 29.39 in - West 35.7 mph 44.9 mph N/A   Unknown
10:20 PM 18.1 °F -2.6 °F 13.8 °F 83% - - West 35.7 mph 47.2 mph N/A   Unknown
10:40 PM 18.0 °F -2.0 °F 14.2 °F 85% - - West 32.2 mph 41.4 mph N/A   Unknown
11:00 PM 17.6 °F -3.3 °F 13.5 °F 84% 29.42 in - WSW 35.7 mph 44.9 mph N/A   Unknown
11:20 PM 17.8 °F -2.0 °F 14.0 °F 85% - - West 31.1 mph 41.4 mph N/A   Unknown
11:40 PM 17.6 °F -1.9 °F 14.4 °F 87% - - WSW 29.9 mph 40.3 mph N/A   Unknown